Weather in Kurakino

Russia / Mari El Republic     56°43′47″N   49°17′05″E
temp.,
°C
wind,
m/s
gust,
m/s
humid.,
%
clouds,
%
prec.,
mm/h
press.,
hPa
HPBL,
m
1 march, mon
mon100:00−21nnw349942 0.0 101745
03:00−22nnw349821 0.0 101950
06:00−23n33970 0.0 102027
09:00−19nw11930 0.0 102173
12:00−14w23860 0.0 1020275
15:00−12wsw25915 0.0 1019308
18:00−13sw4896100 0.0 1016202
21:00−11sw5996100 0.1 1014266
2 march, tue
tue200:00−9ssw61294100 0.4 1009411
03:00−6sw71394100 1.6 1005545
06:00−4sw6139598 0.8 1000487
09:000wsw6119999 1.8 998624
12:000w61099100 0.9 996645
15:000w510100100 2.3 996655
18:00−2wnw5128794 0.7 996411
21:00−3wnw6139284 0.8 997523
3 march, wed
wed300:00−5wnw6139386 0.1 998438
03:00−7wnw6129585 0.1 999332
06:00−7wnw61194100 0.1 999340
09:00−7nw61092100 0.1 1001477
12:00−5nw71089100 0.2 1002769
15:00−5nw698799 0.3 1003794
18:00−8wnw51192100 0.1 1003344
21:00−8w5119394 0.1 1005367
4 march, thu
thu400:00−10wsw489684 0.1 1003144
03:00−8wsw4109492 0.3 1003365
06:00−8w499595 0.1 1002255
09:00−7wsw489497 0.2 1000413
12:00−4ssw6990100 0.1 998725
15:00−3ssw71295100 0.9 994931
18:00−2sw71396100 1.6 991785
21:00−1wsw61293100 1.9 990667
5 march, fri
fri500:00−1w71395100 0.6 988825
03:00−6w8148784 0.7 990760
06:00−9wnw101690100 0.1 995773
09:00−10nw8148799 0.2 1000596
12:00−8wnw6108783 0.0 1004722
15:00−8wnw6108384 0.0 1007726
18:00−11w479212 0.0 1009103
21:00−10w389553 0.1 1012215